Wind_Speed
38 38 38 38 37 37 37 38 38 37 36 35 35 35 35 35 34 32 31 30 29 28 27 25 24 23 22 21 21 20 20 19 18 18 17 18 19 19 17 16 16 15 15 14 14 12 12 12 12 13 14 14 12 10 8 7 7 7 8 9 9 8 8 7 7 11 15 16 16 16 16 15 15 16 18 18 18 16 15 16 16 14 13 11 10
38 37 37 36 37 37 37 38 38 37 36 36 36 36 36 36 34 32 32 32 31 30 30 28 26 25 24 24 23 22 21 20 20 20 20 19 20 20 19 19 18 17 17 16 16 15 14 14 14 15 15 16 15 14 12 10 9 9 9 9 10 9 9 10 9 10 15 19 19 18 17 17 18 19 19 20 20 18 17 17 16 15 14 12 11
38 37 36 36 37 37 37 37 37 36 36 36 37 37 37 36 35 33 33 33 32 31 31 30 29 27 26 26 25 24 23 22 21 21 21 21 21 22 21 21 20 20 20 19 18 18 17 18 17 17 17 17 17 16 15 14 12 12 12 11 12 11 11 12 12 12 15 19 20 19 19 20 21 20 20 20 19 18 18 18 17 16 14 11 10
36 36 36 36 37 36 36 36 35 36 37 37 38 38 37 36 36 35 34 33 33 33 33 32 30 29 28 28 27 27 26 25 24 23 23 22 22 23 22 22 23 23 23 22 21 21 21 21 21 20 19 19 19 19 18 18 17 15 14 14 14 14 13 13 14 14 15 18 20 20 20 21 22 21 21 20 18 18 19 18 17 17 15 12 10
36 36 37 36 35 36 36 35 35 36 38 39 39 39 38 37 37 36 35 34 34 33 33 33 32 31 31 30 30 29 28 27 26 26 25 24 24 24 24 24 24 24 25 24 24 24 24 24 24 23 23 23 22 21 20 19 19 18 18 17 16 16 15 15 15 16 16 18 20 21 21 21 22 21 20 20 20 20 19 18 17 18 18 15 11
36 36 36 35 35 35 36 35 35 37 38 39 39 39 38 37 37 37 37 36 35 34 34 33 33 32 33 32 32 31 30 29 29 28 28 27 26 26 25 25 26 26 26 26 25 25 26 26 26 25 25 25 25 24 22 21 20 20 20 20 19 17 17 17 16 16 16 17 19 21 21 22 23 22 20 20 21 21 21 21 19 19 19 18 15
36 36 36 35 35 36 36 36 37 37 38 39 39 38 38 37 37 37 37 37 36 35 35 35 34 34 34 33 33 32 31 31 31 31 30 30 29 28 28 28 28 28 28 28 27 26 26 26 26 26 26 26 26 25 24 23 22 22 21 21 20 19 18 18 17 16 16 17 19 21 22 22 22 22 22 21 21 19 18 20 22 20 19 19 19
36 36 35 35 36 37 37 37 37 37 38 38 37 37 37 37 37 37 36 36 37 37 36 37 36 35 35 34 34 33 33 33 33 33 32 32 31 31 30 30 30 30 30 30 29 28 28 27 26 26 26 27 27 26 25 24 23 23 22 21 20 19 19 18 17 17 17 18 19 21 21 22 23 23 22 20 18 17 16 17 21 22 20 20 19
36 36 35 36 37 38 37 36 36 36 36 36 36 37 37 37 37 37 37 37 38 38 37 37 36 36 36 36 35 35 34 35 35 35 35 34 33 33 32 31 31 31 31 31 30 30 29 28 27 26 26 26 27 26 26 25 24 23 23 21 20 20 19 19 18 18 18 18 20 20 20 22 23 21 20 18 16 17 18 17 19 21 21 21 19
36 36 36 38 39 38 37 36 36 36 36 37 37 37 37 37 37 37 37 38 38 38 37 37 37 37 36 36 36 36 36 37 37 37 36 36 35 34 33 33 32 32 31 31 31 31 30 30 29 27 26 26 26 26 26 26 25 25 25 23 22 21 20 20 20 19 19 18 20 20 19 21 23 21 20 19 18 18 19 17 18 20 21 20 18
37 37 39 40 39 38 37 37 36 36 37 38 37 37 37 36 36 36 37 38 38 37 37 36 37 37 37 37 37 37 38 39 39 39 38 37 36 35 34 34 33 33 32 32 32 32 31 31 30 29 28 27 27 27 26 26 26 26 26 25 24 23 22 22 21 21 20 20 20 20 19 22 24 22 21 21 21 20 19 17 17 19 18 16 15
36 37 39 39 37 37 37 36 36 37 37 37 37 37 36 35 35 35 36 37 37 36 36 37 37 37 37 37 37 38 39 40 41 40 40 39 37 36 36 35 34 33 33 33 33 32 32 31 30 30 29 28 27 27 26 26 26 25 25 25 25 24 23 23 23 23 22 22 22 22 22 23 25 24 23 22 22 21 19 17 17 18 17 15 15
36 36 36 36 36 37 37 36 36 37 37 38 37 36 34 34 35 35 36 36 36 36 37 37 37 37 37 37 38 38 39 40 41 41 40 39 38 37 36 36 35 35 34 34 34 33 32 31 31 30 30 28 28 27 27 26 25 25 24 24 24 24 24 23 23 23 24 24 24 25 25 25 25 26 24 23 23 22 21 20 20 19 18 17 19
34 35 35 35 36 36 36 35 36 37 37 37 36 34 34 35 36 36 35 34 34 35 36 37 37 37 37 38 39 39 39 40 41 41 41 40 38 37 37 37 36 36 35 34 34 34 33 32 32 31 31 29 28 27 27 26 26 25 25 24 24 24 24 23 23 23 24 26 27 28 27 26 27 27 25 24 24 24 24 24 22 20 19 20 22
33 34 35 36 37 36 36 36 36 36 36 35 34 33 34 35 35 35 34 34 35 36 36 36 37 38 38 38 38 39 40 41 40 41 41 40 39 37 37 37 37 36 35 35 34 34 34 33 33 32 32 31 30 28 27 27 26 26 26 26 25 25 24 24 23 23 23 25 26 27 26 25 26 26 24 23 23 24 24 25 23 21 20 21 22
33 33 34 35 36 36 36 36 36 35 34 32 32 32 33 34 35 35 34 33 34 35 35 36 37 37 38 37 37 39 41 41 41 41 41 40 39 37 37 37 37 36 36 35 35 35 35 34 33 33 33 32 31 30 28 27 26 26 26 27 26 26 26 25 24 24 24 24 25 26 26 25 25 25 24 23 22 22 23 23 23 21 19 19 20
27 30 32 33 35 35 35 35 35 34 33 32 33 34 34 34 34 33 32 32 33 34 35 36 37 37 37 37 37 39 41 42 41 42 42 40 38 37 37 38 37 37 37 36 36 35 35 35 35 34 34 33 32 31 29 28 27 27 27 27 27 27 28 27 26 26 25 26 26 26 26 26 25 25 25 24 23 22 22 23 23 21 17 15 15
11 18 25 29 32 35 36 36 36 35 35 35 36 37 37 37 36 33 30 30 32 34 35 35 35 36 37 38 39 40 41 42 41 41 42 40 39 38 38 38 37 37 37 37 36 36 36 36 36 35 35 35 34 32 31 29 28 28 28 28 27 28 30 29 28 28 27 27 27 26 26 26 25 24 23 22 21 21 22 23 23 20 17 16 16
6 3 11 18 25 31 34 36 37 36 37 38 38 37 36 35 33 34 34 35 35 35 34 33 33 35 37 38 39 39 41 41 40 41 41 40 39 39 38 37 36 36 36 36 36 36 37 37 37 36 37 36 35 34 32 31 30 30 29 27 27 30 31 31 29 29 28 27 27 26 26 25 24 23 21 20 19 19 20 21 21 20 21 21 20
13 8 3 8 14 21 26 31 35 36 38 39 39 37 35 32 33 36 39 39 38 36 34 34 34 35 36 37 38 39 40 41 40 41 40 40 39 39 38 37 37 36 36 36 36 36 36 37 38 38 38 37 36 35 34 33 32 31 30 29 30 32 32 31 30 29 29 28 28 27 27 26 24 23 22 20 20 19 19 19 19 21 22 22 22
15 12 7 4 8 12 17 22 28 33 36 37 37 36 35 34 37 40 39 37 37 37 35 35 35 35 35 36 37 39 40 41 41 40 40 40 39 39 39 40 39 37 35 36 36 36 36 37 38 38 37 37 36 34 34 34 34 33 32 32 33 33 32 31 31 30 29 28 28 28 28 27 26 25 25 24 23 22 22 21 20 21 22 22 23
16 13 12 9 7 9 12 16 20 24 28 31 32 34 34 35 38 39 38 36 37 37 36 35 34 33 34 35 37 39 39 40 40 40 39 40 40 40 41 42 40 38 35 35 36 37 37 37 37 37 36 36 34 33 33 33 33 33 33 33 34 33 32 32 32 30 29 30 29 29 29 28 28 28 28 28 27 25 24 23 22 22 22 22 22
18 14 16 15 10 7 10 14 17 19 23 27 31 34 35 35 36 36 36 35 34 34 35 34 33 31 32 34 36 37 38 39 39 39 40 40 40 40 42 42 41 40 38 37 37 37 38 38 38 36 36 35 34 32 31 31 32 32 31 31 31 31 31 32 32 31 31 31 30 29 29 29 30 30 30 30 29 28 26 25 23 23 23 22 22
21 16 16 17 14 9 9 11 14 17 21 25 30 34 35 35 34 34 34 33 32 32 33 32 31 30 30 32 34 35 36 37 38 39 40 41 41 42 42 42 42 41 41 40 39 38 38 38 37 36 35 34 34 33 31 31 31 30 30 29 29 29 30 32 33 32 31 31 29 30 31 31 31 31 32 32 31 29 27 25 24 23 23 23 22
21 17 16 16 15 12 12 12 14 17 18 21 27 32 34 33 33 32 32 32 31 30 30 30 30 30 30 31 33 34 34 35 37 38 40 41 42 43 43 42 42 42 43 43 41 40 39 38 37 35 35 34 34 32 32 32 31 31 30 29 28 28 29 30 30 30 30 30 29 29 31 32 32 33 34 33 31 29 26 25 24 23 23 23 22
19 17 16 16 15 13 14 14 14 14 14 16 23 29 32 33 33 32 30 30 30 30 29 29 29 29 30 31 32 32 32 33 35 36 37 39 41 42 42 42 42 42 43 44 43 41 40 39 37 35 35 34 34 33 33 33 32 31 31 29 29 28 29 28 28 28 29 30 30 30 31 32 32 32 32 30 28 28 26 25 25 23 22 22 22
18 18 18 18 17 15 15 14 14 14 13 13 19 26 31 33 32 31 30 29 29 29 29 28 28 28 29 29 30 30 31 33 34 34 34 35 37 39 40 41 42 42 44 45 45 43 41 39 38 37 36 34 33 33 32 32 32 31 31 30 30 29 29 29 29 29 29 30 29 29 30 31 30 30 30 29 28 27 26 25 24 23 22 20 19
19 19 20 19 18 16 15 14 15 16 15 14 17 25 31 33 33 33 34 33 31 30 29 29 30 31 31 30 29 29 30 33 34 33 33 34 37 39 40 41 43 44 45 45 45 43 40 38 36 35 35 33 32 31 31 31 31 31 31 31 31 30 30 29 28 28 29 29 29 30 30 30 30 30 29 28 28 28 26 24 24 22 20 18 17
19 19 19 18 17 16 16 16 16 16 16 17 17 20 27 31 32 33 35 37 37 36 34 34 36 37 35 32 31 29 30 34 37 38 37 38 39 40 41 42 43 44 44 45 44 42 40 37 35 33 33 32 32 32 31 31 31 31 31 31 31 31 30 30 30 29 29 28 28 28 27 27 28 29 28 28 29 29 27 25 23 21 19 18 17
17 18 18 17 17 18 18 18 18 17 17 18 18 16 17 22 27 30 33 35 38 40 40 39 40 38 35 35 35 35 36 39 40 39 38 39 40 41 41 42 42 42 42 41 39 37 36 35 35 34 33 32 32 32 31 30 30 31 32 32 32 32 32 31 31 30 29 28 28 27 27 27 26 25 25 26 28 29 28 26 24 21 20 19 17
17 18 19 18 18 19 19 19 20 20 20 20 21 20 17 16 21 28 33 34 36 38 41 43 43 39 36 35 37 39 40 40 37 35 35 36 38 39 40 41 40 39 39 38 35 34 34 35 35 35 34 33 33 32 31 31 31 32 33 31 30 31 31 31 32 31 30 31 31 31 31 29 27 24 23 24 26 29 29 26 23 22 22 20 16
17 18 20 20 20 21 20 19 20 21 21 21 21 21 19 17 19 24 29 33 35 36 39 42 44 44 41 38 36 36 37 38 37 37 36 36 36 37 38 39 39 38 37 35 34 35 37 36 35 34 33 33 33 32 32 33 33 33 32 29 27 29 32 32 32 32 31 32 32 30 27 25 23 23 23 22 23 28 29 27 25 24 22 20 18
17 17 20 22 23 23 23 22 21 20 19 19 19 20 19 17 18 20 22 26 31 35 38 40 42 43 43 42 40 38 37 37 38 39 39 38 37 36 35 35 36 36 36 35 34 33 35 36 35 33 31 32 33 32 33 34 34 32 31 30 30 31 32 31 30 30 31 32 30 27 25 24 23 23 21 19 21 25 29 30 29 26 23 22 20
18 17 19 21 22 23 23 23 22 20 19 17 16 16 16 17 17 18 19 20 23 29 34 38 39 40 41 42 43 43 42 40 39 38 38 38 37 36 33 33 33 34 35 36 36 34 33 34 34 33 31 31 31 31 32 33 33 32 31 31 31 30 30 29 29 30 31 31 28 26 27 26 25 24 23 21 21 22 27 30 29 26 23 21 17
18 17 17 18 19 20 22 22 22 21 19 17 16 15 15 15 16 16 17 17 19 21 26 31 35 38 41 43 44 45 45 44 41 37 34 34 35 34 32 31 31 32 33 36 37 35 32 32 32 33 33 32 32 32 34 34 33 33 32 32 32 31 31 31 31 31 30 29 28 28 29 28 28 26 24 22 21 22 26 30 30 27 24 20 16
18 18 17 17 18 19 21 21 20 20 20 19 18 17 16 15 14 15 15 16 17 18 21 25 28 31 34 38 40 41 42 42 41 37 34 32 33 34 33 32 33 33 35 38 39 36 34 33 34 33 34 34 34 35 35 35 35 34 34 34 33 34 34 34 33 31 30 29 28 28 28 28 28 26 23 22 24 26 30 32 31 27 24 22 18
17 19 19 19 19 20 20 19 18 18 19 18 16 16 16 16 15 15 15 16 17 18 20 22 23 24 27 31 34 35 35 35 36 36 35 33 33 33 34 35 33 32 33 37 38 37 35 36 36 35 35 36 36 36 36 36 35 35 35 35 35 36 36 36 34 32 30 29 27 27 27 28 28 26 25 25 26 27 30 31 28 24 24 23 19
17 19 19 20 20 19 19 18 17 16 16 16 14 14 15 15 15 15 15 17 18 18 19 21 20 21 24 27 28 27 27 27 29 32 34 34 33 34 36 36 34 33 33 34 36 37 38 39 39 38 37 37 36 36 36 35 35 35 35 36 37 37 36 34 31 29 29 28 27 27 28 28 27 26 27 27 26 27 29 30 27 25 24 23 22
19 19 19 19 18 17 17 15 14 15 15 14 14 14 14 14 14 14 15 17 18 19 19 20 20 21 23 24 23 22 22 23 25 28 31 33 34 37 39 38 36 35 34 33 34 36 38 39 39 39 39 38 38 37 36 36 36 36 36 36 36 34 31 28 25 23 24 26 27 28 28 27 26 27 27 25 25 26 26 25 25 24 22 20 21
19 18 17 17 16 15 14 13 13 14 14 14 14 14 14 15 15 14 15 16 17 18 19 19 20 21 22 22 20 20 21 23 26 29 30 32 34 38 39 39 38 37 36 35 35 36 39 40 40 39 40 40 39 38 37 37 36 36 35 35 34 31 28 27 26 25 27 29 30 29 27 26 27 27 25 23 24 24 23 23 24 23 21 19 20
17 16 16 15 14 13 12 11 12 14 14 14 14 13 13 14 15 16 16 17 17 18 19 20 21 22 23 22 22 21 20 22 24 26 27 28 30 32 35 37 38 37 36 35 34 36 38 40 40 40 40 40 39 37 36 35 34 33 33 33 32 30 29 30 32 32 32 32 31 30 28 27 26 24 22 22 23 22 22 23 24 22 20 18 16
14 14 14 14 13 12 11 12 13 14 13 14 14 13 13 14 14 14 15 16 16 17 18 19 21 22 23 24 24 23 22 23 24 25 25 25 25 26 30 34 36 36 37 37 37 36 36 38 38 38 37 36 35 34 33 32 32 32 33 34 33 32 32 34 34 34 32 30 29 28 26 25 24 22 21 21 20 19 18 19 18 18 17 16 15
10 11 11 11 11 11 11 12 12 12 12 13 13 12 12 13 13 12 12 12 13 13 12 12 13 14 15 17 19 20 21 23 23 24 24 23 22 22 24 27 28 29 32 34 36 36 36 37 36 34 33 32 31 30 30 30 30 31 32 33 31 30 31 33 33 31 29 27 25 23 23 23 23 22 22 22 20 18 16 16 17 17 18 18 17
9 8 9 9 9 9 10 11 11 11 12 12 13 12 12 12 12 13 12 12 11 12 11 11 10 8 6 6 8 11 15 17 18 18 18 19 18 17 17 18 19 21 23 24 25 26 27 29 29 28 27 28 28 29 29 29 29 30 30 29 26 24 25 27 27 26 25 24 23 21 21 22 22 22 22 22 21 20 19 19 19 19 19 19 18
7 7 8 8 9 9 9 10 11 11 11 11 12 12 13 13 13 14 13 13 13 13 13 14 13 12 11 9 6 2 2 5 7 8 10 12 13 13 13 14 15 17 18 18 18 18 20 23 26 27 27 27 27 27 26 26 26 27 28 28 28 28 27 27 27 25 24 23 22 22 22 21 20 20 20 21 21 21 21 21 21 20 19 18 17
6 6 6 7 8 9 10 11 11 11 11 11 11 12 13 14 15 15 14 14 14 15 15 16 17 17 17 16 14 12 11 9 7 6 4 2 3 4 7 9 10 10 10 11 13 15 18 20 22 23 24 24 23 22 21 21 22 23 23 24 27 28 28 27 27 26 25 24 24 24 22 20 19 19 20 20 21 21 21 21 20 19 18 17 16
5 5 5 5 7 8 9 10 11 11 11 11 11 12 13 14 16 17 17 16 17 17 17 18 19 20 21 21 20 19 18 17 16 15 14 13 11 10 8 8 8 9 10 11 12 14 15 15 14 14 14 16 17 18 19 20 20 21 22 23 25 26 27 26 26 26 26 26 25 23 21 20 20 19 19 20 20 20 20 20 19 18 18 18 18
4 4 3 4 6 8 9 9 10 11 11 11 11 12 13 15 17 19 19 19 19 19 20 21 22 22 22 23 22 23 23 22 21 21 20 20 19 17 16 16 16 17 17 17 17 18 18 19 19 20 21 21 22 23 24 24 24 24 24 23 24 25 25 25 25 24 24 23 22 20 19 20 20 19 19 19 19 19 19 19 19 19 19 19 19
4 3 4 5 7 9 10 10 11 11 11 11 12 14 15 16 18 19 19 19 20 20 21 21 22 22 22 23 24 24 25 25 26 25 25 24 23 22 21 22 22 23 24 25 25 25 26 26 27 27 28 29 28 29 29 29 29 27 25 23 22 21 21 22 22 22 21 21 19 18 18 19 19 18 18 18 19 19 20 20 20 20 19 18 17
5 5 5 6 8 9 10 11 12 12 12 13 14 16 17 18 19 19 19 19 20 20 21 22 22 22 22 23 24 24 25 26 27 27 27 26 25 24 24 25 25 26 27 27 28 29 30 30 30 30 30 31 32 32 32 33 33 31 28 25 22 22 22 22 22 23 23 24 22 20 19 20 20 19 19 19 19 19 19 19 19 18 16 15 14
6 6 7 8 9 10 11 12 13 13 13 14 16 17 18 19 19 20 19 20 20 20 21 22 23 23 24 25 25 26 27 26 25 26 28 29 28 28 27 27 27 28 29 29 30 30 31 32 33 33 31 31 31 32 33 33 33 32 31 27 24 23 23 23 24 23 24 25 26 23 20 19 20 19 18 18 17 17 17 16 15 14 13 13 12
Wind_Direction
207 208 210 211 212 213 215 217 219 221 223 225 229 231 232 234 236 239 239 239 241 241 242 245 247 248 249 249 249 249 249 249 249 250 251 249 246 246 250 255 261 264 262 257 256 260 265 262 254 252 257 264 269 274 282 288 286 275 268 270 268 269 277 275 272 291 305 314 319 325 331 335 338 343 344 346 350 354 359 1 1 0 358 354 349
207 209 210 211 213 214 216 217 218 220 221 223 227 230 232 234 236 238 239 240 242 243 244 246 248 248 247 247 248 249 250 251 250 250 251 250 248 247 249 253 257 260 259 258 257 259 264 266 262 260 263 265 266 267 269 273 273 271 268 266 266 266 269 275 278 286 298 307 314 319 325 330 330 333 337 339 342 346 352 358 1 1 359 352 344
207 208 209 211 213 214 216 217 218 218 219 221 224 227 230 232 235 237 239 241 243 243 244 246 247 247 247 246 247 248 249 250 249 249 249 249 248 248 249 252 255 257 259 259 260 261 262 265 266 267 269 269 269 268 267 267 266 266 267 265 266 268 270 276 279 282 291 301 308 313 319 323 323 326 330 333 336 339 345 352 357 359 358 351 343
207 208 209 211 213 214 215 216 217 217 219 221 223 224 226 229 232 235 238 241 243 243 242 243 245 246 246 246 246 247 248 248 248 248 248 248 248 248 250 252 254 256 259 261 263 264 264 265 266 269 272 272 272 271 268 267 266 266 267 268 269 271 275 279 282 284 287 292 300 307 314 317 318 323 327 328 330 334 340 347 352 356 359 356 347
206 208 209 211 212 213 214 215 216 217 219 221 222 223 224 226 229 233 236 239 241 241 240 241 242 244 245 246 246 246 247 248 249 249 249 249 249 249 250 252 254 256 258 261 264 265 265 266 267 269 270 271 271 271 270 270 270 270 269 270 272 274 278 281 285 286 285 287 294 302 309 313 315 320 323 325 328 332 338 342 348 354 356 357 355
206 208 209 210 211 213 214 214 215 217 219 221 222 223 223 223 226 229 233 235 238 239 239 240 241 242 244 246 245 246 247 248 250 252 252 251 251 251 251 252 254 255 257 260 262 264 266 266 267 268 267 268 269 269 270 271 272 273 272 272 274 277 280 282 284 286 285 287 292 297 304 308 310 314 318 321 324 329 334 336 342 350 351 352 355
206 207 208 210 212 213 214 214 215 217 220 221 222 223 223 223 224 226 229 232 234 236 238 239 241 242 244 245 245 246 247 248 250 252 253 253 252 252 252 252 253 254 256 257 259 261 264 265 267 266 265 266 266 267 269 270 272 275 275 274 274 276 279 281 283 284 285 288 290 293 298 301 303 306 310 315 318 323 330 330 331 340 346 346 348
205 207 208 209 212 214 215 216 217 218 220 221 222 223 223 223 224 225 226 228 231 233 236 238 240 242 243 245 246 247 248 248 249 250 251 252 253 253 253 252 252 253 254 256 257 258 261 263 265 265 264 264 264 266 267 269 272 274 275 276 275 275 277 279 280 281 283 285 286 289 292 293 295 298 303 308 312 317 325 323 322 329 337 339 343
204 206 207 210 213 215 216 216 217 219 220 221 222 223 224 224 225 225 226 227 230 232 233 236 238 240 242 244 246 248 248 249 249 250 250 251 251 252 253 252 251 252 252 254 255 256 258 261 262 263 263 262 263 265 266 268 270 271 272 274 275 275 275 276 276 277 279 280 281 285 286 287 290 294 297 301 305 310 315 315 315 323 328 331 338
203 204 207 211 214 215 215 216 217 218 219 220 222 223 224 225 225 225 226 228 229 230 231 233 234 237 239 242 244 246 247 248 250 250 251 251 251 251 251 251 251 250 250 251 253 255 257 259 261 263 263 263 262 263 264 266 267 267 268 271 273 273 273 273 274 275 274 273 276 279 279 280 286 289 291 296 300 303 307 308 310 317 323 327 333
203 204 208 211 213 213 214 215 216 217 219 220 222 223 224 224 225 225 226 228 229 230 230 231 233 235 237 239 241 243 245 247 249 250 250 250 250 248 248 250 250 249 249 249 251 254 256 258 260 262 262 263 263 263 264 264 265 265 266 266 268 268 268 269 271 272 270 267 270 273 270 273 283 287 288 293 297 297 299 301 303 308 315 319 321
204 206 209 211 211 212 213 214 215 217 219 221 222 223 223 223 224 225 226 228 229 229 230 231 233 234 235 237 239 241 243 246 248 249 249 249 248 247 246 247 248 248 248 249 250 253 254 256 259 261 262 264 265 265 266 266 266 266 266 266 265 265 265 265 266 267 266 264 265 267 268 271 279 285 286 291 295 295 294 294 294 297 302 302 302
205 208 210 210 211 212 213 213 215 217 219 221 222 222 222 223 224 225 227 228 228 229 230 231 232 233 233 235 237 239 242 245 247 248 248 249 248 246 244 245 245 246 247 248 250 251 252 253 256 259 262 264 265 265 266 267 269 269 269 268 266 265 264 264 264 265 265 264 262 264 269 272 276 282 289 291 292 290 287 287 289 290 292 294 297
206 208 209 210 211 212 212 213 215 218 220 221 221 221 221 223 225 226 227 228 228 229 230 231 232 233 233 234 236 239 241 243 245 247 247 248 248 246 244 243 244 245 247 248 249 250 251 252 253 257 261 263 264 265 265 266 269 270 270 269 269 270 269 268 268 267 266 265 263 265 271 274 276 283 291 292 289 286 284 285 286 287 288 292 295
206 207 208 209 211 211 211 213 215 218 219 219 220 220 221 223 225 226 227 227 229 230 231 232 233 233 234 234 235 238 241 243 244 246 247 247 247 245 243 242 242 244 246 247 248 249 251 252 253 256 259 261 263 265 265 266 267 268 269 270 272 274 274 274 273 272 271 270 269 270 275 277 279 284 291 294 292 290 287 285 283 284 287 289 291
206 207 207 209 210 210 211 212 214 216 217 217 218 220 222 224 225 226 226 227 230 232 233 234 234 234 235 234 235 238 241 243 243 244 246 247 245 244 242 241 241 242 244 246 247 249 251 251 252 254 257 260 263 265 265 265 264 265 267 269 272 274 276 277 277 276 276 276 276 277 279 280 281 284 288 291 292 291 289 284 280 280 282 283 286
208 207 208 208 210 210 211 212 213 214 214 214 216 218 221 224 226 227 227 228 229 231 232 234 236 236 236 235 234 237 240 242 242 243 245 245 243 241 240 240 240 240 243 246 246 248 250 251 251 253 255 258 262 265 265 262 260 261 263 266 269 272 275 278 278 277 277 278 279 281 281 282 282 283 285 286 287 286 280 275 277 278 273 270 276
212 208 208 209 210 211 211 211 212 212 213 213 216 218 218 220 222 223 225 230 233 234 235 236 237 237 236 236 235 237 240 242 242 242 244 243 240 238 238 238 238 239 242 244 246 247 249 251 252 252 254 257 261 263 262 259 257 258 259 261 263 266 272 277 277 277 278 279 280 281 282 282 283 283 284 284 284 280 272 271 277 275 264 259 266
348 241 209 207 208 210 211 212 212 211 212 215 217 219 220 218 217 216 220 227 232 235 235 236 238 239 239 238 238 237 240 242 242 242 242 241 239 237 236 234 234 236 239 242 245 246 248 251 252 251 253 257 260 261 260 257 255 256 256 255 255 260 269 274 274 275 278 279 280 282 282 284 285 285 285 284 281 276 271 271 274 268 261 261 264
345 341 280 214 211 210 209 211 213 213 215 218 220 221 222 221 219 219 220 223 227 231 232 232 236 239 240 240 240 238 239 241 242 242 242 241 239 236 233 231 232 234 236 239 242 244 246 249 251 252 254 256 258 260 259 257 256 256 255 251 251 260 270 272 271 274 277 277 280 282 282 284 284 283 283 282 279 275 273 272 272 267 264 263 263
339 339 317 260 225 223 218 215 218 219 220 222 222 221 221 221 223 224 222 220 223 227 230 230 232 236 240 241 240 240 239 240 241 241 241 240 239 236 232 231 232 233 234 236 239 241 243 247 250 252 254 255 258 259 258 257 257 255 253 253 257 265 271 271 271 273 274 274 277 279 279 281 281 280 281 280 279 278 277 275 274 271 268 266 265
332 332 316 290 243 228 231 228 227 228 227 226 224 222 220 220 222 224 222 221 222 226 229 230 231 234 238 240 240 241 240 240 240 241 240 240 240 237 234 233 234 233 232 234 237 239 242 246 249 253 255 256 259 260 260 259 257 255 256 260 263 267 269 269 269 268 269 270 273 273 274 276 277 278 279 278 278 279 277 274 274 273 270 269 269
324 328 320 306 284 246 239 236 232 233 232 228 225 224 222 220 221 221 220 219 221 223 226 229 231 233 236 238 239 240 240 240 240 240 240 240 239 239 238 236 235 233 232 233 236 240 243 246 249 253 255 256 259 261 262 261 259 259 261 264 265 267 267 266 265 264 265 267 268 268 270 272 273 275 276 278 279 279 277 274 274 273 271 269 268
321 325 324 316 307 292 268 253 244 241 238 233 228 224 223 221 220 219 218 217 218 222 225 227 228 230 233 236 238 239 239 239 239 239 239 239 239 240 240 238 236 235 234 235 238 240 243 246 249 253 255 257 259 262 263 263 261 262 265 266 266 266 264 262 262 262 263 263 262 264 267 269 270 273 275 278 280 279 277 274 272 270 267 265 264
321 322 322 316 312 302 286 272 261 254 250 243 233 226 223 221 219 218 217 216 218 222 225 225 226 227 229 233 236 237 237 237 238 238 239 239 239 240 241 239 237 236 236 237 239 241 244 247 250 253 255 257 259 260 261 261 262 263 266 266 265 262 260 261 261 260 259 260 260 262 265 268 272 275 277 278 277 275 274 270 267 264 261 260 262
321 320 314 311 312 309 296 283 271 266 262 251 239 230 223 219 217 216 215 215 219 222 224 225 226 226 228 230 233 235 236 236 236 237 237 237 238 239 240 240 239 238 239 240 241 243 246 248 249 251 253 254 255 256 257 260 261 262 263 262 261 261 261 261 259 257 257 260 261 262 266 270 274 275 275 274 272 271 270 265 261 258 257 258 260
322 317 312 313 318 317 303 291 285 286 286 270 248 235 225 219 216 214 213 214 218 221 223 225 225 226 228 230 231 232 234 235 235 235 234 234 236 238 238 239 239 238 238 240 240 240 243 245 246 248 250 251 252 253 255 257 258 258 259 259 259 261 262 262 261 259 259 261 263 265 270 273 274 274 274 271 268 267 266 260 255 255 255 255 255
324 320 316 316 318 315 304 295 293 294 293 282 254 234 223 217 214 213 214 215 216 219 221 223 225 226 227 227 227 229 231 232 233 232 230 231 234 235 235 236 236 235 236 238 238 237 239 242 243 244 246 246 247 249 250 251 253 254 256 257 258 260 261 260 258 257 258 260 262 265 268 270 270 271 270 267 265 265 263 255 250 251 251 247 243
326 325 321 316 316 315 308 299 296 294 290 286 269 241 225 218 216 218 220 220 220 221 222 223 225 227 226 225 224 223 226 231 234 233 230 231 233 233 235 236 236 236 238 239 236 234 235 237 238 240 241 241 242 244 245 246 249 251 252 254 255 256 256 254 252 253 256 257 257 259 262 265 268 269 268 263 261 261 258 251 246 244 240 236 234
327 328 324 318 318 318 312 306 303 299 293 294 293 280 252 232 227 228 230 229 229 228 228 230 231 230 228 228 228 227 230 236 239 236 233 233 235 236 238 241 240 240 240 238 232 229 231 233 234 235 236 236 237 238 239 242 244 246 248 250 250 250 250 250 250 252 252 250 248 249 250 252 256 262 266 266 265 262 256 247 241 235 229 226 225
332 333 327 320 317 316 313 311 312 309 305 305 308 308 296 268 247 242 240 237 236 236 235 237 238 235 233 233 235 235 238 241 242 240 238 237 237 238 240 243 243 243 241 235 226 223 226 229 231 233 233 233 234 235 236 238 240 242 245 245 245 245 245 246 248 248 245 243 244 245 245 244 243 245 251 260 267 268 262 250 236 227 224 222 221
334 332 325 317 314 314 313 314 317 315 312 313 315 315 308 288 266 255 248 241 238 239 240 241 241 240 238 238 238 240 241 242 242 242 242 242 242 241 241 242 243 243 239 231 224 223 224 225 228 231 231 231 232 233 235 236 237 240 241 239 239 243 244 245 245 243 241 242 244 244 245 246 245 245 245 248 256 264 263 251 235 226 223 221 222
331 327 322 318 318 318 317 318 319 317 314 313 314 315 311 294 274 266 260 250 242 240 240 241 242 242 241 241 241 242 244 245 244 242 241 241 243 244 243 242 242 240 233 225 221 222 223 224 227 230 230 230 230 232 234 236 237 238 238 237 239 243 244 244 242 240 239 241 242 241 241 242 244 248 250 248 250 255 255 247 235 226 220 219 221
326 321 321 320 319 320 319 317 315 312 309 309 309 310 311 304 288 274 264 254 247 243 242 242 242 243 244 244 243 243 243 245 245 244 242 241 242 243 243 240 237 234 229 224 222 223 223 224 227 229 230 231 231 230 233 236 237 237 238 239 240 241 242 242 240 239 239 240 239 237 236 235 235 239 242 241 241 245 248 245 237 226 219 218 220
323 317 317 319 318 318 319 316 312 309 308 309 311 311 311 311 304 290 272 258 250 248 247 246 245 245 246 246 246 245 244 243 243 244 244 243 241 239 236 232 228 226 225 224 224 224 225 226 227 229 230 231 230 230 232 235 236 235 236 237 237 237 238 239 239 239 240 238 236 236 237 236 234 234 234 233 233 236 240 240 234 226 221 219 218
323 315 315 319 320 319 320 318 314 312 311 311 311 310 307 305 305 302 294 282 270 261 257 255 253 252 251 250 250 249 247 244 242 242 242 241 239 234 229 227 226 225 225 225 225 226 228 230 230 231 232 231 231 231 233 235 236 236 236 236 236 235 236 237 237 237 237 235 234 235 237 237 237 236 233 231 231 233 235 234 231 226 222 218 217
322 315 316 321 323 321 321 320 317 315 314 314 313 310 305 302 300 301 299 295 289 282 275 269 263 257 254 253 252 250 248 246 244 242 240 238 236 231 229 228 228 227 228 228 226 226 229 231 232 232 233 233 232 233 233 234 235 236 236 236 236 236 237 238 238 236 234 232 231 231 234 237 239 237 233 229 227 227 230 230 229 226 222 217 215
323 318 318 322 323 322 322 322 322 321 319 318 318 315 308 300 296 295 293 290 288 286 282 278 270 260 256 256 256 253 250 246 241 239 237 235 233 231 230 230 230 230 231 230 228 228 230 233 233 233 234 234 234 234 233 233 234 235 235 235 236 237 238 239 238 235 234 232 232 233 236 237 236 233 229 225 222 225 228 228 226 224 220 214 211
327 322 320 323 323 322 323 325 326 327 325 323 323 323 316 305 294 286 282 283 283 280 276 274 270 264 261 262 260 254 246 240 236 235 235 235 234 234 233 232 231 232 232 232 231 231 232 235 235 235 235 235 235 234 233 232 233 233 234 235 235 236 235 233 231 233 238 240 239 237 237 236 236 235 230 222 221 225 229 230 228 225 221 217 212
325 320 319 322 322 323 326 329 331 332 332 329 327 325 321 313 303 291 280 274 272 270 269 268 267 267 267 268 265 255 242 237 238 239 238 236 237 237 235 233 233 234 234 233 232 232 233 235 236 236 237 237 236 234 233 232 232 232 232 232 232 231 229 227 229 235 241 243 243 242 240 237 236 232 224 218 221 227 230 231 228 223 220 220 215
323 316 316 322 324 326 332 337 337 336 335 333 330 326 321 316 312 305 294 281 270 265 262 261 262 265 268 269 269 264 253 245 244 245 243 240 239 238 236 236 236 236 236 237 236 235 235 236 236 236 236 237 236 234 232 231 229 229 230 230 229 226 225 229 234 235 233 233 237 241 241 236 229 221 213 211 216 218 217 217 216 211 208 211 211
321 314 316 322 327 334 339 341 340 338 337 337 335 329 323 321 320 317 311 301 291 282 274 267 266 268 268 267 266 264 259 255 254 253 252 250 247 245 244 245 244 242 240 241 241 240 238 238 237 236 236 236 235 234 232 229 227 227 228 229 227 224 225 231 235 234 230 229 232 235 234 229 220 211 202 199 197 195 198 203 204 199 196 195 198
317 313 315 319 328 338 343 343 344 342 340 340 340 336 331 332 333 335 335 331 326 320 313 302 292 286 279 273 267 261 255 253 253 253 254 254 254 251 248 247 246 244 243 242 243 242 241 239 237 235 234 233 233 232 230 226 225 226 228 229 227 225 227 230 232 231 227 226 228 228 226 218 207 196 187 182 179 176 181 188 190 189 188 186 187
317 314 315 319 328 340 347 351 353 348 342 343 348 350 350 350 351 355 360 2 3 5 6 3 358 348 331 305 279 259 250 246 247 248 249 249 249 248 244 241 240 239 238 239 238 237 235 234 231 229 228 228 228 227 224 222 221 222 223 223 224 225 227 229 228 225 221 219 218 215 210 203 194 182 173 169 167 167 171 177 181 182 183 183 184
323 321 320 325 336 345 353 360 0 355 351 351 356 3 8 8 9 13 18 22 26 31 33 35 36 38 39 42 48 52 234 235 238 238 234 232 232 232 232 232 233 231 230 230 228 223 221 223 225 225 223 222 221 220 217 217 217 218 219 221 224 224 220 215 213 212 210 207 203 196 189 184 178 169 162 160 163 167 171 175 179 179 180 182 184
330 325 326 337 347 354 0 5 6 5 4 3 4 10 17 21 25 28 32 36 39 43 45 47 51 54 55 58 61 63 66 69 70 69 79 115 159 187 199 206 209 208 204 201 200 197 198 205 212 212 209 208 207 204 203 206 208 206 206 211 214 211 204 198 196 195 192 189 186 182 175 169 166 165 162 161 164 168 171 172 175 178 179 181 184
337 332 336 351 5 11 13 13 13 13 13 15 16 17 22 29 35 39 42 45 48 51 53 54 58 61 61 62 63 64 66 67 66 62 60 62 67 79 100 120 131 136 137 140 148 155 160 165 167 163 161 164 166 167 172 178 180 176 175 179 182 180 177 176 176 175 174 175 175 173 168 165 165 166 165 164 165 169 171 172 175 178 179 179 178
349 351 1 12 24 32 30 27 25 23 22 25 30 31 32 36 41 43 46 48 51 54 58 60 63 65 66 67 68 68 69 70 69 68 67 67 68 71 77 84 92 100 106 108 112 118 124 127 125 122 123 125 127 130 134 138 141 142 145 150 154 157 158 158 158 157 158 159 159 160 162 162 163 163 164 164 166 168 168 167 166 165 165 164 162
11 19 34 38 43 48 46 40 38 36 34 37 42 43 43 44 46 47 47 49 52 56 59 63 66 69 71 73 76 78 79 78 77 75 73 71 70 71 75 78 82 87 91 94 96 100 105 110 112 114 116 116 117 118 119 120 122 124 126 129 135 141 146 148 149 149 149 147 146 149 153 153 152 153 154 155 157 158 156 154 152 151 151 151 151
28 33 47 53 56 59 57 52 48 46 44 46 50 52 52 52 52 52 52 52 54 58 61 65 68 71 72 75 78 79 81 83 85 85 84 81 77 74 73 74 78 81 84 87 90 93 96 100 102 104 106 107 109 112 114 114 113 112 113 114 119 125 129 132 135 140 143 141 138 139 142 142 141 142 144 144 145 147 145 143 143 144 143 142 141
36 39 50 59 65 67 64 59 55 52 51 51 54 56 57 57 57 58 59 59 61 64 67 69 71 72 73 74 75 74 74 75 77 82 85 85 84 81 76 72 74 77 80 82 84 86 89 92 94 94 94 95 97 100 102 105 107 109 111 111 111 114 118 123 126 129 131 130 128 130 134 135 134 135 136 137 139 138 135 133 133 133 131 130 130
Height
806 808 810 813 815 817 820 822 825 828 830 832 834 836 838 839 841 843 844 846 848 849 851 852 853 855 856 858 859 860 861 862 864 865 866 866 867 868 869 870 870 871 872 873 873 874 874 874 875 876 877 877 878 878 879 879 879 879 880 880 879 880 879 879 879 877 876 877 877 876 876 875 875 874 874 873 872 872 871 870 869 867 865 864 863
803 806 808 811 813 815 817 820 822 825 827 830 832 833 835 837 839 841 843 844 846 848 849 850 852 853 855 856 857 858 860 861 862 863 864 865 866 866 867 868 869 870 870 871 872 873 873 873 874 874 875 876 876 877 877 878 878 878 878 878 878 878 878 879 878 877 875 875 875 875 875 875 874 874 873 872 871 871 870 869 868 866 865 863 862
800 804 806 808 810 813 815 817 819 822 825 827 829 831 833 835 837 839 841 843 844 846 847 849 850 851 853 854 855 857 858 859 860 861 862 863 864 865 866 866 867 868 868 869 870 871 872 872 872 873 874 874 874 875 876 876 877 877 877 877 877 877 878 878 878 877 876 874 874 874 874 874 873 873 873 872 871 870 869 868 867 866 864 863 862
798 801 804 806 808 811 813 815 817 820 822 824 825 828 830 833 835 837 839 841 842 844 846 847 849 850 851 852 853 854 856 857 858 859 860 861 862 863 864 865 865 866 866 867 868 869 870 870 871 872 872 872 872 873 874 874 875 875 875 876 876 876 877 877 877 877 876 874 874 874 874 873 872 872 871 870 870 869 868 867 866 865 864 862 861
796 798 801 803 806 808 810 812 815 816 818 820 822 825 827 830 832 834 836 838 840 842 844 845 846 848 849 850 851 852 853 854 856 857 858 859 860 861 862 863 863 864 864 865 866 867 867 868 869 870 870 870 870 871 871 872 872 873 873 874 874 875 876 876 876 876 876 875 873 873 873 872 871 870 870 869 868 867 867 866 865 864 863 862 861
793 795 798 801 803 805 807 809 811 813 815 817 819 822 824 827 829 831 833 835 837 839 841 842 844 845 846 847 848 849 850 852 853 854 855 856 857 858 859 860 861 862 862 863 864 865 865 865 866 867 868 868 867 868 869 870 870 871 871 872 873 874 874 875 875 875 875 874 873 872 872 871 870 868 868 868 867 865 864 863 863 863 862 860 859
789 792 795 797 800 802 804 806 808 810 812 814 817 819 822 824 826 828 830 832 834 836 838 839 841 842 844 845 846 847 848 849 850 851 853 854 855 856 856 857 858 859 859 860 861 862 862 863 863 864 865 865 865 866 866 867 868 868 869 870 871 872 872 873 873 873 873 872 872 871 870 869 868 867 867 866 866 865 864 861 860 861 861 859 858
786 789 792 794 796 798 800 803 805 807 809 812 814 817 819 821 823 825 827 828 830 832 834 836 837 839 840 842 843 844 845 846 847 848 849 851 852 853 853 854 855 855 856 857 858 859 859 860 860 861 861 862 862 863 864 865 866 866 867 868 869 869 870 870 871 871 871 870 869 869 868 867 866 865 865 865 864 864 863 861 859 858 858 858 857
783 786 788 790 792 794 797 800 802 804 807 809 811 813 815 818 819 822 823 825 826 828 830 832 834 835 837 838 839 841 842 842 843 844 846 847 848 849 850 851 851 852 853 854 854 855 856 857 857 858 858 859 860 860 861 862 863 864 864 865 866 867 867 868 868 868 868 867 867 866 866 864 864 864 863 863 863 862 861 860 858 857 856 856 855
779 782 784 786 788 791 794 796 798 801 803 805 807 809 812 814 816 818 820 821 823 824 826 828 830 831 832 834 835 836 837 838 839 840 842 843 845 846 847 847 848 849 850 850 851 852 852 853 854 854 855 856 857 858 859 860 861 861 862 863 864 864 864 865 865 865 865 865 864 864 863 862 861 861 861 861 861 860 859 859 857 855 854 853 853
774 777 779 780 784 787 790 792 795 797 799 801 803 805 808 810 813 814 816 818 819 821 823 824 825 827 828 829 831 832 832 833 835 836 838 839 841 842 843 844 845 845 846 847 848 848 849 850 850 851 852 853 854 855 856 857 858 858 859 860 861 861 862 862 862 862 862 862 861 861 861 859 858 859 859 858 858 858 857 857 856 854 853 852 851
771 773 774 777 781 784 786 788 791 793 795 797 799 801 804 807 809 811 813 814 816 818 819 820 821 823 824 825 826 827 827 828 830 832 833 835 837 838 839 840 841 842 843 844 844 845 846 846 847 848 849 850 851 852 852 854 855 855 856 857 857 858 859 859 859 859 859 859 859 859 858 857 856 856 856 856 856 856 855 855 854 853 852 852 851
767 769 772 775 777 780 782 785 787 789 791 793 796 798 801 803 805 807 809 811 813 814 815 816 818 819 820 821 821 822 823 824 825 827 829 830 832 834 835 837 837 838 839 840 841 842 842 843 844 845 846 847 848 848 849 850 851 852 853 853 854 855 855 856 856 857 857 856 856 855 855 854 853 853 854 854 854 854 853 852 852 852 851 851 850
764 766 768 771 773 776 779 781 783 785 787 789 792 795 797 799 800 803 805 808 810 810 811 813 814 815 816 817 817 818 818 819 821 823 824 826 828 830 831 833 833 834 835 836 837 838 839 840 841 841 842 843 844 845 846 847 848 849 849 850 850 851 852 853 853 854 854 853 852 851 851 852 851 850 851 852 852 851 850 850 850 850 849 849 848
760 762 764 767 769 772 774 777 779 781 784 787 789 791 793 794 796 799 801 803 805 806 807 809 810 811 812 813 814 814 814 815 817 818 820 822 824 826 827 829 830 831 831 833 834 834 835 836 837 838 839 840 841 842 843 844 845 846 846 847 847 848 849 850 850 850 850 850 849 848 848 849 848 848 848 849 849 848 848 848 847 847 847 846 845
756 758 760 762 765 768 770 772 775 777 780 783 785 787 789 791 793 795 797 799 801 802 804 805 806 807 808 809 810 810 809 811 813 814 816 818 820 822 824 825 826 827 828 829 830 831 832 833 833 834 835 836 837 839 840 841 842 843 843 843 844 845 845 846 847 847 847 846 846 845 845 845 846 845 846 846 846 846 845 845 844 845 845 844 843
754 755 757 759 761 764 766 768 770 773 776 778 779 781 783 786 789 792 794 796 797 798 799 800 802 803 804 805 806 805 805 806 808 809 811 814 816 819 820 820 821 822 823 824 825 826 827 828 829 830 831 832 833 835 837 838 839 839 840 841 841 842 842 842 843 843 843 843 843 842 842 842 842 843 843 843 843 843 843 842 841 842 842 841 840
754 754 755 756 758 759 761 764 766 768 770 772 773 775 776 778 782 786 791 793 795 795 796 797 798 799 800 800 801 801 800 801 803 805 807 810 812 814 815 816 817 818 819 820 821 822 823 824 825 826 827 828 830 831 833 835 836 836 837 838 838 838 837 838 838 839 839 839 839 839 839 839 839 840 840 840 840 840 840 838 838 839 839 838 838
755 754 754 755 756 757 758 760 761 763 765 766 769 772 774 776 777 779 781 784 786 789 792 793 794 795 796 796 797 797 797 797 799 800 802 805 808 810 811 812 813 813 814 816 817 818 818 819 820 822 822 824 826 828 829 831 832 832 833 835 835 834 833 834 835 836 836 836 836 836 836 836 836 837 837 837 837 837 836 836 836 836 835 835 835
756 755 754 754 754 755 756 757 759 760 761 762 764 767 771 775 775 772 772 774 778 782 785 786 787 789 791 792 793 793 793 793 794 795 797 800 803 805 807 807 808 809 810 811 812 813 814 814 815 817 818 819 821 823 825 826 827 828 830 831 830 829 829 831 832 832 832 832 832 832 832 832 833 834 834 834 834 834 833 833 833 833 832 832 832
757 756 755 754 753 753 754 756 757 758 759 760 762 763 766 770 770 768 768 770 773 776 779 780 781 782 784 786 788 788 788 788 789 790 792 795 797 800 802 802 802 804 805 806 807 807 808 810 810 812 813 815 817 819 820 821 823 824 825 826 825 826 827 828 828 828 828 828 828 828 829 829 830 830 830 831 831 830 830 830 830 830 830 830 830
757 756 755 754 753 752 752 754 754 756 757 758 759 760 762 765 766 765 765 765 767 770 774 776 776 776 777 780 782 783 784 784 785 786 787 789 792 794 795 796 798 800 801 801 802 802 804 805 806 807 809 810 812 814 816 817 818 820 821 821 822 823 824 824 824 825 825 825 825 825 825 825 826 826 826 827 827 827 827 827 827 827 827 827 827
757 754 754 754 752 749 750 751 752 753 754 755 756 756 758 760 761 762 762 762 763 766 769 771 772 771 772 773 775 777 779 780 780 781 782 784 786 788 789 791 793 796 796 796 797 798 799 800 801 803 805 806 808 810 811 813 814 815 816 817 818 820 821 821 821 822 822 822 822 822 822 822 822 822 822 823 823 824 824 824 824 824 824 823 824
756 753 752 753 751 748 748 749 749 750 750 751 752 752 752 754 756 757 758 759 760 762 764 766 767 766 766 768 770 772 774 775 775 776 777 778 780 782 783 786 788 790 791 791 792 793 794 796 797 800 801 802 804 805 807 808 810 811 812 814 815 816 817 817 818 819 819 819 819 819 818 819 819 819 819 819 820 820 821 821 821 821 820 820 820
755 751 750 752 751 749 747 746 746 747 747 747 748 747 747 749 750 752 753 755 756 757 759 760 761 761 762 763 764 766 768 769 770 770 771 773 775 776 778 780 783 785 786 786 787 789 790 792 794 796 798 799 800 801 803 804 805 807 808 809 811 812 813 813 814 816 816 815 816 816 816 816 816 816 816 816 817 817 817 817 817 817 817 817 817
754 751 750 751 750 748 746 745 744 744 744 743 743 743 744 744 744 745 748 750 751 752 754 755 756 756 757 757 759 761 763 764 765 766 766 768 769 771 773 776 778 780 781 781 783 785 787 789 791 793 794 795 796 797 798 799 801 802 804 805 806 807 808 809 810 811 811 811 812 812 812 813 814 813 813 814 814 813 814 814 814 813 814 814 813
754 752 751 750 748 746 745 743 742 741 740 739 739 740 740 741 740 740 741 743 745 747 749 751 752 752 752 753 755 757 758 759 760 761 762 764 765 767 770 771 773 775 776 777 779 781 784 786 788 789 790 791 792 793 794 795 797 798 799 801 802 803 804 805 806 807 807 808 809 809 810 811 811 811 811 811 810 810 810 811 810 810 810 810 810
754 752 751 748 746 745 744 742 741 739 738 737 738 737 737 737 736 734 734 735 737 740 743 745 746 746 747 748 750 752 752 752 753 755 758 759 760 761 763 765 767 769 770 771 774 778 781 783 784 785 786 786 787 788 790 791 792 793 795 796 797 798 799 800 801 802 803 804 805 806 807 807 808 808 809 809 808 808 808 807 807 807 807 807 806
753 751 749 746 744 742 742 741 740 739 738 737 737 735 733 731 729 728 727 728 730 733 736 738 739 740 741 743 744 745 745 745 746 749 752 753 753 755 756 757 760 762 763 767 771 775 777 778 779 780 780 781 782 783 784 786 787 788 790 791 792 794 794 795 796 796 798 799 800 801 802 803 804 805 806 806 805 805 805 804 804 803 803 803 802
752 749 747 745 743 741 739 738 736 735 735 734 732 729 726 724 723 723 723 725 727 729 731 732 733 735 737 738 738 739 738 738 740 743 746 748 749 750 751 753 755 757 760 764 768 771 772 773 773 774 775 776 777 778 779 781 782 783 784 785 787 788 789 789 790 791 793 793 793 793 794 794 796 799 802 804 805 804 802 800 799 799 799 799 798
751 747 746 745 743 742 739 736 732 730 729 727 724 720 717 717 718 719 720 722 725 727 728 729 730 733 734 734 734 735 735 737 740 742 743 745 746 747 748 750 752 754 757 761 764 765 766 767 767 768 769 770 771 772 774 775 776 776 778 780 781 782 783 784 785 786 787 787 787 787 787 786 787 789 792 797 802 805 804 800 797 795 795 795 794
751 749 748 747 744 742 739 735 731 728 725 723 720 717 714 714 714 715 717 720 722 724 725 726 727 728 729 730 731 732 733 735 737 738 739 741 742 743 745 746 749 751 755 757 758 759 760 761 761 762 764 765 765 767 769 769 770 771 773 774 775 776 777 778 779 781 782 783 784 785 787 787 786 786 785 787 792 798 802 801 796 792 791 791 790
752 751 749 746 743 740 736 733 730 729 727 724 721 719 717 716 715 714 716 718 720 721 721 722 722 723 725 727 728 729 730 731 732 733 735 737 738 740 742 744 746 749 751 753 753 753 754 755 756 757 758 759 760 762 764 764 765 766 768 769 770 770 771 773 774 776 777 777 779 781 782 783 783 783 784 784 785 790 796 798 794 789 787 786 786
752 751 750 747 743 739 736 734 732 731 729 727 725 722 720 718 717 716 716 716 717 717 717 717 718 720 721 722 723 725 726 727 728 729 731 733 735 737 739 741 743 745 746 747 747 748 749 750 750 752 753 754 756 757 759 759 760 762 762 763 765 766 767 768 769 770 771 772 774 776 776 776 776 776 777 778 779 782 789 793 791 786 783 782 782
752 752 750 748 745 741 738 735 733 730 728 726 724 722 720 719 718 717 716 715 715 714 713 713 714 715 715 716 717 719 721 723 725 727 729 731 734 736 737 737 738 739 740 741 742 743 744 745 745 746 748 749 750 752 753 754 755 756 757 758 760 761 762 763 763 764 765 766 768 770 770 770 769 769 769 771 772 775 781 786 786 782 779 779 780
752 752 749 747 744 741 738 735 732 729 726 723 721 720 719 718 717 716 715 714 713 712 710 709 710 710 711 712 713 715 717 720 722 725 726 728 730 731 732 732 732 732 733 735 736 738 740 740 741 742 742 743 744 746 747 748 749 750 751 753 754 754 755 756 757 758 760 761 762 764 766 766 764 763 764 767 768 770 774 778 778 776 775 776 777
752 751 748 745 742 739 736 734 731 728 726 723 720 718 717 716 715 714 713 712 711 709 708 707 707 708 708 708 709 712 714 716 719 721 722 723 724 725 726 726 727 729 729 730 731 734 735 735 736 737 737 738 739 740 742 743 744 746 747 748 748 748 748 750 751 754 755 757 759 760 762 762 761 760 761 762 764 766 770 772 773 772 772 773 774
750 749 746 744 741 739 736 732 730 727 725 722 720 717 715 714 713 713 712 711 709 708 707 706 706 706 705 705 707 709 711 713 714 715 716 717 718 719 720 721 722 724 724 724 726 728 728 729 731 732 732 733 734 735 737 738 740 741 742 742 743 743 744 746 749 751 753 755 756 757 758 759 759 759 759 759 761 762 764 766 767 768 768 768 770
746 746 745 743 741 739 736 732 729 727 725 722 719 717 715 714 712 711 710 709 708 707 706 705 705 705 705 705 706 707 708 708 709 710 711 712 713 714 714 716 717 717 718 719 720 722 722 723 725 726 727 728 728 729 731 732 734 735 736 737 738 740 742 745 748 751 753 754 755 755 754 755 756 756 755 756 757 759 761 764 766 768 768 767 768
746 746 745 744 741 738 735 731 728 726 724 722 719 717 716 714 713 711 709 707 706 705 704 704 703 703 704 705 705 705 705 705 705 706 707 707 708 708 709 710 711 712 713 714 715 716 716 717 718 720 721 722 723 724 725 727 729 730 732 733 734 736 739 741 743 744 746 748 751 752 751 751 751 752 752 752 753 755 757 760 764 766 768 769 769
746 746 745 743 740 736 733 730 727 725 723 722 719 717 716 714 713 711 708 706 704 702 701 701 700 700 702 703 703 704 704 704 704 704 704 704 704 704 705 706 706 707 709 710 711 711 711 711 712 712 713 715 717 719 721 723 725 727 728 729 730 733 735 736 736 735 735 738 743 746 748 748 748 748 748 747 747 749 752 756 759 762 765 767 768
745 745 744 741 738 735 732 729 727 726 724 722 720 718 716 714 712 710 708 706 703 701 699 697 697 697 698 699 700 700 701 701 702 702 702 702 702 702 701 702 702 703 704 705 706 707 707 707 707 708 709 711 714 716 718 720 721 723 724 725 727 729 731 731 731 732 733 734 737 741 744 746 746 745 744 743 743 746 750 754 757 759 761 764 766
744 744 744 741 738 735 732 729 727 726 725 723 721 718 716 714 712 710 708 705 703 700 698 696 695 695 695 695 696 696 697 698 698 698 698 699 699 699 698 698 698 699 700 701 702 703 703 703 704 705 707 708 711 713 715 716 717 719 720 722 724 726 727 728 728 730 732 734 737 739 742 745 745 742 739 738 739 742 747 752 755 757 759 762 764
743 743 743 741 738 735 731 729 727 726 725 724 721 719 716 715 712 710 708 705 703 701 698 696 694 693 692 692 693 694 695 695 695 695 695 696 696 695 695 695 695 696 696 697 698 699 701 702 703 704 705 706 707 708 709 711 713 714 716 719 722 724 726 727 729 732 734 734 735 738 741 744 744 741 737 736 737 741 745 750 753 756 758 760 762
742 742 741 740 737 734 731 728 727 726 725 724 722 720 717 715 713 711 708 706 704 701 699 696 694 693 692 692 692 692 693 694 694 694 694 693 693 692 692 693 693 693 693 693 694 696 699 701 701 701 701 702 702 702 704 707 708 708 710 714 717 718 719 720 724 729 732 733 734 737 741 743 743 741 739 738 739 742 746 749 752 755 757 759 760
742 741 741 739 736 733 730 728 726 726 725 725 723 721 718 716 714 712 710 708 705 703 700 698 696 694 694 694 693 693 694 694 695 695 695 695 694 693 693 692 692 692 692 693 693 694 696 697 697 696 696 696 696 697 699 702 704 705 707 710 713 714 715 716 718 721 725 729 734 738 740 740 742 742 741 740 741 744 747 749 751 753 755 756 758
742 741 740 738 735 732 729 728 727 726 726 726 724 722 720 717 715 713 711 709 707 705 702 700 698 697 696 697 697 696 696 696 696 697 698 698 698 698 697 696 695 694 694 695 695 695 695 696 696 697 697 697 696 696 696 699 701 702 704 707 711 712 713 715 718 721 723 726 731 735 737 738 740 741 741 741 742 744 747 749 750 752 753 755 757
742 741 740 737 734 731 729 729 728 728 728 727 725 723 721 718 716 714 713 711 710 708 706 704 702 701 700 700 700 700 699 699 698 699 700 700 701 702 702 701 700 699 698 698 698 697 697 697 698 699 700 700 700 699 698 698 700 702 705 709 712 713 713 716 719 723 725 726 728 731 735 738 740 741 742 743 744 746 747 749 750 752 754 756 757
742 741 739 736 733 730 729 729 730 730 730 729 727 724 722 720 718 716 715 714 712 711 709 708 706 706 705 705 704 703 702 701 700 700 702 703 704 705 705 706 705 704 703 702 702 702 701 701 701 702 702 701 702 703 701 700 700 703 707 711 714 715 717 719 720 721 723 725 728 732 736 739 742 744 745 746 747 748 749 750 752 754 756 758 759
741 739 737 735 732 730 730 730 731 732 731 730 728 726 724 722 720 718 717 717 716 715 713 712 711 710 710 709 708 707 705 704 703 702 702 704 706 708 709 709 709 708 708 707 707 707 706 705 704 705 705 704 704 704 703 702 701 703 707 713 717 720 722 723 723 724 723 722 726 733 739 742 744 748 749 750 752 753 753 753 755 757 759 760 761
740 738 736 734 733 731 731 731 732 733 733 732 730 727 726 725 723 722 721 721 720 719 717 716 715 715 714 713 712 711 710 709 709 707 705 705 706 708 711 714 714 713 713 712 712 712 711 709 708 709 710 710 708 706 705 705 705 704 708 715 722 725 727 728 730 731 727 721 721 730 739 744 747 750 752 753 755 757 757 757 758 760 761 762 763